Location: Gro� Glienicke
(52.4675°N, 13.1079°E)
Time: 02:48:22
(UTC+00:00)

SL-16 R/B - Pass Details

Date: 06 July 2020
Orbit: 839 x 850 km, 71.0° (Epoch: 04 August)

Event Time Altitude Azimuth Distance (km) Brightness Sun altitude
Exits shadow 22:46:40 19° 199° (SSW) 1,909 3.5 -14.8°
Maximum altitude 22:50:49 74° 117° (ESE) 885 2.2 -14.8°
Drops below altitude 10° 22:56:30 10° 34° (NNE) 2,485 5.4 -14.9°
Sets 22:58:58 0° 32° (NNE) 3,425 6.3 -14.9°
